AFR24 LFPG-KLAX

Flight info

Callsign AFR24
Flight time N/A
Altitude 30000
Route ATREX DCT VESAN/N0481F320 DCT RATUK DCT SOVAT L613 LEHOC DCT INPIP DCT GOW/N0480F340 DCT EVBEV DCT BALIX/M083F340 DCT 60N020W 60N030W 60N040W 60N050W DCT TOXIT/N0470F340 DCT LAKES DCT 57N070W/N0471F360 5530N08000W 5330N09000W 4930N10000W DCT KU12W DCT KU03U DCT BOY/N0474F380 DCT MLF J107 BERYL DCT GUNTR Q73 HAKMN ANJLL4
Aircraft B77W/H-SDE1E2E3FGHIJ2J3J4J5M1RWXY/LB1D1

Departure

Time N/A
Airport Charles de Gaulle International Airport (LFPG)

Arrival

Time 2026-04-25 22:30
Airport Los Angeles International Airport (KLAX)
Time Latitude Longitude Altitude Speed Heading
2026-04-25 22:18 34.05869 -117.55531 13954 ft 280 kts 250°
2026-04-25 22:18 34.05301 -117.57749 13958 ft 285 kts 250°
2026-04-25 22:18 34.04748 -117.59913 13910 ft 281 kts 250°
2026-04-25 22:19 34.04181 -117.62135 13673 ft 278 kts 250°
2026-04-25 22:19 34.03645 -117.64226 13331 ft 276 kts 250°
2026-04-25 22:19 34.03077 -117.66439 12988 ft 276 kts 250°
2026-04-25 22:19 34.02510 -117.68648 12605 ft 277 kts 251°
2026-04-25 22:20 34.02024 -117.70859 12243 ft 279 kts 258°
2026-04-25 22:20 34.01787 -117.73176 11985 ft 276 kts 261°
2026-04-25 22:20 34.01602 -117.75454 11764 ft 270 kts 261°
2026-04-25 22:20 34.01416 -117.77674 11592 ft 263 kts 261°
2026-04-25 22:21 34.01220 -117.79856 11304 ft 261 kts 261°
2026-04-25 22:21 34.01017 -117.82004 10974 ft 261 kts 261°
2026-04-25 22:21 34.00808 -117.84175 10629 ft 261 kts 261°
2026-04-25 22:21 34.00600 -117.86318 10067 ft 255 kts 262°
2026-04-25 22:22 34.00391 -117.88449 9273 ft 256 kts 262°
2026-04-25 22:22 34.00191 -117.90500 8461 ft 258 kts 262°
2026-04-25 22:22 33.99990 -117.92556 8013 ft 247 kts 262°
2026-04-25 22:22 33.99793 -117.94579 7506 ft 239 kts 262°
2026-04-25 22:23 33.99605 -117.96490 7048 ft 231 kts 262°
2026-04-25 22:23 33.99425 -117.98309 6591 ft 234 kts 262°
2026-04-25 22:23 33.99223 -118.00344 6356 ft 249 kts 262°
2026-04-25 22:23 33.99015 -118.02443 5956 ft 248 kts 262°
2026-04-25 22:24 33.98816 -118.04442 5638 ft 242 kts 262°
2026-04-25 22:24 33.98634 -118.06256 5361 ft 251 kts 262°
2026-04-25 22:24 33.98423 -118.08365 5065 ft 257 kts 262°
2026-04-25 22:24 33.98208 -118.10515 4785 ft 255 kts 262°
2026-04-25 22:25 33.98012 -118.12502 4836 ft 227 kts 262°
2026-04-25 22:25 33.97838 -118.14253 4804 ft 203 kts 262°
2026-04-25 22:25 33.97681 -118.15818 4395 ft 197 kts 261°
2026-04-25 22:25 33.97519 -118.17442 3973 ft 190 kts 262°
2026-04-25 22:26 33.97368 -118.18998 3607 ft 185 kts 261°
2026-04-25 22:26 33.97212 -118.20563 3394 ft 188 kts 261°
2026-04-25 22:26 33.97052 -118.22128 3177 ft 190 kts 261°
2026-04-25 22:26 33.96889 -118.23719 2911 ft 191 kts 262°
2026-04-25 22:27 33.96732 -118.25277 2631 ft 187 kts 261°
2026-04-25 22:27 33.96576 -118.26809 2379 ft 182 kts 261°
2026-04-25 22:27 33.96424 -118.28303 2131 ft 176 kts 261°
2026-04-25 22:27 33.96275 -118.29753 1916 ft 170 kts 261°
2026-04-25 22:28 33.96137 -118.31122 1684 ft 159 kts 260°
2026-04-25 22:28 33.96004 -118.32414 1480 ft 151 kts 261°
2026-04-25 22:28 33.95874 -118.33674 1279 ft 160 kts 259°
2026-04-25 22:28 33.95748 -118.34919 1049 ft 161 kts 260°
2026-04-25 22:29 33.95625 -118.36144 838 ft 147 kts 259°
2026-04-25 22:29 33.95505 -118.37307 625 ft 135 kts 260°
2026-04-25 22:29 33.95402 -118.38371 452 ft 125 kts 259°
2026-04-25 22:30 33.95192 -118.40492 163 ft 124 kts 260°
2026-04-25 22:30 33.95085 -118.41418 111 ft 93 kts 263°
2026-04-25 22:30 33.95029 -118.41956 112 ft 34 kts 261°
2026-04-25 22:30 33.94993 -118.42108 111 ft 3 kts 244°
2026-04-25 22:31 33.94976 -118.42143 109 ft 14 kts 237°
2026-04-25 22:31 33.94944 -118.42195 109 ft 2 kts 231°
2026-04-25 22:31 33.94927 -118.42221 109 ft 5 kts 231°
2026-04-25 22:31 33.94844 -118.42276 110 ft 27 kts 192°
2026-04-25 22:32 33.94726 -118.42275 108 ft 0 kts 172°
2026-04-25 22:33 33.94725 -118.42275 107 ft 2 kts 172°
2026-04-25 22:33 33.94702 -118.42256 106 ft 6 kts 133°
2026-04-25 22:33 33.94689 -118.42198 107 ft 8 kts 93°
2026-04-25 22:34 33.94693 -118.42122 104 ft 10 kts 83°
2026-04-25 22:34 33.94702 -118.42035 106 ft 11 kts 83°
2026-04-25 22:34 33.94712 -118.41939 103 ft 12 kts 83°
2026-04-25 22:34 33.94696 -118.41841 104 ft 13 kts 138°
2026-04-25 22:35 33.94663 -118.41810 103 ft 6 kts 126°
2026-04-25 22:35 33.94649 -118.41759 102 ft 7 kts 102°
2026-04-25 22:35 33.94611 -118.41721 101 ft 8 kts 158°
2026-04-25 22:35 33.94554 -118.41707 100 ft 9 kts 172°
2026-04-25 22:36 33.94491 -118.41698 101 ft 9 kts 174°
2026-04-25 22:36 33.94426 -118.41689 102 ft 9 kts 173°
2026-04-25 22:36 33.94362 -118.41679 100 ft 9 kts 173°
2026-04-25 22:36 33.94340 -118.41676 100 ft 0 kts 173°
2026-04-25 22:38 33.94339 -118.41676 99 ft 1 kts 167°
2026-04-25 22:38 33.94333 -118.41660 103 ft 3 kts 103°
2026-04-25 22:38 33.94338 -118.41644 101 ft 4 kts 65°
2026-04-25 22:39 33.94346 -118.41605 99 ft 1 kts 83°
2026-04-25 22:39 33.94348 -118.41587 99 ft 0 kts 83°
2026-04-25 22:39 33.94349 -118.41581 99 ft 2 kts 84°
2026-04-25 22:39 33.94349 -118.41579 99 ft 0 kts 84°